This is the latest recevied weather packets stored in our database for station/object WMKI. If no packets are shown the sender has not sent any weather packets the latest 10 day(s).
| Time | Temp. | Humidity | Pressure | Rain* | Wind** | Luminosity | Snow |
|---|---|---|---|---|---|---|---|
| 1777853438 | 25.56° C | 88% | 1010 hPa | - | - | - | - |
| 1777849838 | 25° C | 94% | 1009 hPa | - | - | - | - |
| 1777846253 | 25° C | 94% | 1009 hPa | - | - | - | - |
| 1777842640 | 25° C | 94% | 1008 hPa | - | - | - | - |
| 1777839038 | 25° C | 94% | 1009 hPa | - | - | - | - |
| 1777835439 | 25° C | 94% | 1009 hPa | - | - | - | - |
| 1777831838 | 25° C | 94% | 1010 hPa | - | - | - | - |
| 1777828253 | 25° C | 94% | 1010 hPa | - | - | - | - |
| 1777824638 | 25° C | 94% | 1010 hPa | - | - | - | - |
| 1777821042 | 25° C | 88% | 1011 hPa | - | - | - | - |
| 1777817434 | 25.56° C | 88% | 1011 hPa | - | - | - | - |
| 1777813834 | 25.56° C | 94% | 1009 hPa | - | - | - | - |
| 1777810253 | 25.56° C | 94% | 1008 hPa | - | - | - | - |
| 1777806641 | 25.56° C | 94% | 1007 hPa | - | - | - | - |
| 1777803037 | 25.56° C | 94% | 1006 hPa | - | - | - | - |
| 1777799437 | 25.56° C | 94% | 1006 hPa | - | - | - | - |
| 1777796398 | 25.56° C | 88% | 1006 hPa | - | - | - | - |
| 1777795853 | 25.56° C | 88% | 1006 hPa | - | - | - | - |
| 1777792238 | 32.78° C | 62% | 1007 hPa | - | - | - | - |
| 1777788637 | 33.89° C | 59% | 1007 hPa | - | - | - | - |
| 1777785037 | 32.78° C | 59% | 1009 hPa | - | - | - | - |
| 1777781452 | 31.67° C | 66% | 1010 hPa | - | - | - | - |
| 1777777838 | 30° C | 70% | 1010 hPa | - | - | - | - |
| 1777774241 | 27.78° C | 74% | 1010 hPa | - | - | - | - |
| 1777770636 | 25.56° C | 83% | 1010 hPa | - | - | - | - |
* Rain since midnight (hover to see other rain measurements)
** Current wind speed in m/s (hover to see current wind gust speed)